Погода в Семипалатинске

Хотите узнать прогноз погоды в Семипалатинске? Тогда Вам сюда: Погода в Семипалатинске

Поиск расширенной информации на нашем сайте:

Полезная информация:

Новости сайта



02.01.2020
Опубликован Долгосрочный прогноз погоды по городам России и ближнего зарубежья на январь 2020 года.
Карты: Прогноз на январь и февраль 2020 года, Сравнение прогнозируемой аномалии приземной температуры воздуха на январь 2020 года по разным моделям.




Погода в Семипалатинске - сегодня

Время (UTC), дата Ветер
(°,м/с) 
Видим.   Явления Облачность Т
(°С)
Тd
(°С)
f(%) Тe
(°С)
Pmin
(гПа)
dP
(гПа)
Po
(мм)
O2
(г/м3)
Тmin Tmax R s Состояние
почвы
12 22.10.21 тихо ()   10 км  {ливн. осадки}  9/9 600 м кучево-дожд. 
[Cb calv]
+6 -1.6 58 +6  1027.9  1.3  753  297           
15 22.10.21 тихо ()   н/о    10/10 600 м кучево-дожд. 
[Cb calv]
+4.9 -3.1 56 +5  1030.6  2.4  755  299    +8.9       
18 22.10.21 200 (Ю) н/о    10/10 600 м кучево-дожд. 
[Cb calv]
+4.3 -4.4 53 +4  1031.6  755  300    +8.9  0.0     
21 22.10.21 180 (Ю) н/о    3/3 1000 м 
[Sc]
+2.7 -3.2 65 +2  1031.4  -0.4  755  302           
00 23.10.21 180 (Ю) н/о    8/8 1000 м 
[Sc]
+2.9 -3.3 64 +2  1031.2  -0.1  755  301           
03 23.10.21 250 (З) 10 км    9/8 1000 м средняя 
[Sc|Ac trans]
+4.4 -3.8 55 +3  1031.2  0.1  755  300           
06 23.10.21 250 (З) 10 км    9/9 600 м кучево-дожд. 
[Cb calv]
+7.9 -5.1 39 +7  1029.7  -1.2  754  296  +2.2         
09 23.10.21 250 (З) 10 км    9/9 600 м кучево-дожд. 
[Cb calv]
+9.5 -4 38 +8  1028.3  -1.2  753  294           
12 23.10.21 250 (З) 10 км  слаб. ливневой дождь  10/10 600 м кучево-дожд. 
[Cb calv]
+6.3 +2.7 78 +6  1029.2  0.7  754  297           
15 23.10.21 250 (З) н/о  {ливн. осадки}  9/6 600 м кучево-дожд., средняя 
[Cb calv|Ac trans]
+5.4 +2.4 81 +4  1030  0.6  754  298    +9.7       
18 23.10.21 180 (Ю) н/о  {ливн. осадки}  9/8 600 м кучево-дожд., средняя 
[Cb calv|Ac trans]
+4.9 +2.4 84 +3  1029.9  -0.1  754  298    +9.7  0.0     
21 23.10.21 180 (Ю) н/о    9/9 600 м кучево-дожд. 
[Cb calv]
+4.5 +2.3 86 +4  1029.9  -0.1  754  299           
00 24.10.21 250 (З) н/о    9/6 600 м кучево-дожд., средняя 
[Cb calv|Ac trans]
+3.7 +1.9 88 +3  1029.7  -0.2  754  299           
03 24.10.21 230 (ЮЗ) 10 км    9/9 600 м кучево-дожд. 
[Cb calv]
+6.7 -1 58 +7  1029.8  0.4  754  297           
06 24.10.21 200 (Ю) 10 км    10/10 600 м кучево-дожд. 
[Cb calv]
+8.4 -1 52 +7  1029.5  -0.2  754  295  +2.8         
09 24.10.21 160 (Ю) 10 км    10/10 1000 м 
[Sc]
+9.7 -0.4 49 +10  1028.5  -0.9  754  293           
12 24.10.21 тихо ()   10 км    10/10 1000 м 
[Sc]
+8.8 +1.5 60 +9  1028.4  -0.1  753  294           
15 24.10.21 тихо ()   н/о    9/9 1000 м 
[Sc]
+8.6 +1.8 62 +9  1028.3  -0.1  753  294    +10.8       
18 24.10.21 160 (Ю) н/о    9/9 1000 м 
[Sc]
+7.7 +1 63 +6  1028  -0.4  753  295    +10.8       
21 24.10.21 140 (ЮВ) н/о    3/3 1000 м 
[Sc]
+3 -1.5 72 +2  1027.6  -0.8  752  300           
00 25.10.21 тихо ()   н/о    ясно 
+1 -2.6 77 +1  1026.9  -0.9  752  302           
03 25.10.21 тихо ()   10 км    ясно 
+3.4 -2 68 +3  1025.9  -0.7  751  299           
06 25.10.21 160 (Ю) 10 км    3/0 верхняя 
[Ci fib]
+10.3 -1.5 44 +10  1024.3  -1  751  292  +0.7         
09 25.10.21 160 (Ю) 10 км    3/0 верхняя 
[Ci fib]
+13.4 -0.8 37 +13  1021.4  -2.6  749  288           
12 25.10.21 тихо ()   10 км    6/0 верхняя 
[Ci fib]
+11.2 +0.9 49 +11  1020.9  -0.6  748  289           
Время (UTC), дата Ветер
(°,м/с) 
Видим.   Явления Облачность Т
(°С)
Тd
(°С)
f(%) Тe
(°С)
Pmin
(гПа)
dP
(гПа)
Po
(мм)
O2
(г/м3)
Тmin Tmax R s Состояние
почвы

Для получения пояснительной информации подведите курсор к названию столбца.

ПОГОДА в Семипалатинске - архив

Всё, что Вы хотите узнать о погоде в Семипалатинске - удобно и подробно!

Выберите нужную дату (начиная с 1 января 2019* года) и нажмите кнопку "Найти".
Будут отображены архивные сводки погоды по пункту Семипалатинск, начиная с указанной даты.


Отображать данные в формате CSV (для использования в таблицах Excel)


Внимание! Наш архив погоды предназначен исключительно для личного некоммерческого использования в познавательных целях. Если Вам необходимы официальные справки о состоянии погоды (для производственных, юридических, коммерческих и т.п. целей), обращайтесь в органы Росгидромета.

*Примечание: данная дата относится к архиву по метеостанциям СССР (Россия, СНГ, Балтия).
Архив по метеостанциям Зарубежной Европы и Азии (кроме Китая) хранится 10 дней, по другим регионам земного шара (Китай, Африка, Америка, Австралия, Океания) - 1 день.

Семипалатинск - район местоположения метеостанции


Название, широта, долгота, высота метеостанции:
Семипалатинск 50.4°ш. 80.3°д. 196 м над ур. моря [Казахстан]

Дополнительная информация

В oтличие oт бoльшинства пoгoдных сайтoв мы публикуем пoдрoбную метеoинфoрмацию в детальнoм прoфессиoнальнoм фoрмате.

Характеристики температуры и влажнoсти вoздуха измеряются на высoте 2 м в тени вдали oт зданий и деревьев.
Скoрoсть ветра измеряется на высoте 10 м (на урoвне рoста челoвека скoрoсть ветра ниже в 1.5-2 раза). Если метеoстанция нахoдится в гoрoде или в лесу, тo скoрoсть ветра занижена на 2-4 м/с пo сравнению с oткрытым местoм. Скoрoсть ветра над акватoриями крупных рек и oзёр, а также на вершинах хoлмoв на 2-5 м/с выше, чем в oбычных услoвиях.
Атмoсфернoе давление в разных тoчках местнoсти мoжет значительнo oтличаться oт давления на метеoстанции, в зависимoсти oт услoвий рельефа (при пoдъёме на 10 м давление пoнижается примернo на 1 мм рт.ст.).